Location: Lombard
(41.8800°N, 88.0080°W)
Time: 11:50:24
(UTC-05:00)

DX 1 - Visible Passes

Search period start: 17 May 2022 00:00
Search period end: 27 May 2022 00:00
Orbit: 617 x 630 km, 98.4° (Epoch: 17 May)

Date Brightness Start Highest point End Pass type
(mag) Time Alt. Az. Time Alt. Az. Time Alt. Az.
17 May ? 21:36:54 10° NNE 21:41:10 55° E 21:44:07 19° S visible
17 May ? 23:14:24 10° NNW 23:16:51 15° WNW 23:19:16 10° W visible
18 May ? 21:55:10 10° NNE 21:59:31 87° ESE 22:02:44 18° SSW visible
19 May ? 20:39:28 10° ENE 20:41:21 12° E 20:43:13 10° ESE visible
19 May ? 22:13:33 10° N 22:17:50 59° WNW 22:21:21 15° SSW visible
20 May ? 20:56:41 10° NE 20:59:51 20° E 21:02:44 11° SE visible
20 May ? 22:32:04 10° N 22:36:06 37° WNW 22:39:58 11° SW visible
21 May ? 21:14:28 10° NE 21:18:19 30° E 21:21:20 14° SSE visible
21 May ? 22:50:45 10° NNW 22:54:18 25° WNW 22:57:51 10° WSW visible
22 May ? 21:32:30 10° NNE 21:36:43 47° E 21:39:56 16° S visible
22 May ? 23:09:41 10° NNW 23:12:28 17° WNW 23:15:15 10° WSW visible
23 May ? 21:50:43 10° NNE 21:55:05 76° ESE 21:58:32 16° S visible
23 May ? 23:29:14 10° NW 23:30:34 11° WNW 23:31:55 10° WNW visible
24 May ? 22:09:03 10° N 22:13:23 69° WNW 22:17:08 14° SSW visible
25 May ? 20:52:28 10° NE 20:55:20 17° E 20:58:13 10° SE visible
25 May ? 22:27:31 10° N 22:31:39 43° WNW 22:35:43 10° SW visible
26 May ? 21:10:08 10° NE 21:13:48 26° E 21:17:04 12° SSE visible
26 May ? 22:46:08 10° N 22:49:52 28° WNW 22:53:36 10° SW visible
